AO-07 1 07530U 74089B 16048.87291666 -.00000019 00000-0 15406-3 0 9997 2 07530 101.5590 022.6350 0011901 183.3883 230.1454 12.53619680887814 FO-29 1 24278U 96046B 16049.08363277 -.00000003 00000-0 31637-4 0 9992 2 24278 98.5780 350.0460 0350858 153.4813 208.4761 13.53063791963277 RS-22 1 27939U 03042A 16049.44235425 .00000752 00000-0 14456-3 0 9995 2 27939 97.8676 205.8554 0012496 330.5954 29.4586 14.66324970662274 HO-68 1 36122U 09072B 16049.50172105 -.00000059 00000-0 -43517-4 0 9993 2 36122 100.1591 90.1277 0006844 270.0303 90.0030 13.16332734296862 AO-73 1 39444U 13066AE 16048.82902045 .00001690 00000-0 21883-3 0 9990 2 39444 97.6979 107.2261 0060242 55.1883 305.4977 14.80871344119765 EO-79 1 40025U 14033R 16049.35604770 .00002026 00000-0 22761-3 0 9995 2 40025 97.9374 314.8023 0014150 96.4336 263.8491 14.87806002 90384 XW-2A 1 40903U 15049E 16049.44705634 .00008651 00000-0 25418-3 0 9991 2 40903 97.4518 63.2053 0015415 198.3930 287.8410 15.35256318 23172 XW-2C 1 40906U 15049H 16049.45270381 .00003970 00000-0 22721-3 0 9994 2 40906 97.4556 59.1429 0017641 90.2040 41.2543 15.13079312 22893 LILACSAT-2 1 40908U 15049K 16049.45451630 .00002423 00000-0 14341-3 0 9995 2 40908 97.4624 59.1154 0018368 84.4206 51.0558 15.12228713 22886 XW-2E 1 40909U 15049L 16049.47692676 .00006146 00000-0 34297-3 0 9993 2 40909 97.4552 59.2715 0016988 93.0212 62.9491 15.13784443 22908 UO-11 1 14781U 84021B 16049.11295105 .00000540 00000-0 73381-4 0 9995 2 14781 97.7670 104.6884 0008318 357.6848 2.4326 14.82674462718468 LO-19 1 20442U 90005G 16048.88305020 .00000101 00000-0 52836-4 0 9991 2 20442 098.5348 345.5587 0012485 137.7083 222.5066 14.32798690362066 AO-27 1 22825U 93061C 16048.87259710 .00000107 00000-0 58872-4 0 9998 2 22825 98.7440 4.4780 0007655 315.7333 44.3236 14.29939128168043 IO-26 1 22826U 93061D 16048.87428117 .00000118 00000-0 62928-4 0 9997 2 22826 98.7383 4.6175 0008062 305.8903 54.1530 14.30261870168204 GO-32 1 25397U 98043D 16048.88333812 .00000032 00000-0 32898-4 0 9994 2 25397 098.5539 357.0347 0001311 023.9530 336.1709 14.23583462914522 NO-44 1 26931U 01043C 16048.93316528 .00000081 00000-0 63054-4 0 9996 2 26931 067.0497 263.1505 0007437 271.6213 088.4036 14.30386548750879 SO-50 1 27607U 02058C 16049.77905690 .00001148 00000-0 16129-3 0 9996 2 27607 64.5559 165.6593 0078081 241.1968 118.1758 14.75069633707658 CO-55 1 27844U 03031E 16049.47826636 .00000248 00000-0 13216-3 0 9994 2 27844 98.6948 59.4749 0008863 313.6352 46.4089 14.21916086655439 CO-57 1 27848U 03031J 16049.27890701 .00000210 00000-0 11565-3 0 9994 2 27848 98.7045 59.3114 0008892 323.0078 37.0485 14.21546823655309 CO-65 1 32785U 08021C 16048.82545885 .00001479 00000-0 16914-3 0 9995 2 32785 097.6183 087.9633 0012672 341.4975 018.5779 14.87403336422664 PRISM 1 33493U 09002B 16049.44724379 .00002965 00000-0 27977-3 0 9990 2 33493 98.2306 263.8190 0014541 240.3264 119.6505 14.94536795383348 TISAT-1 1 36799U 10035E 16049.28916195 .00003236 00000-0 34524-3 0 9999 2 36799 98.0208 157.8214 0013896 117.7971 242.4656 14.89506915303576 ALMASAT-1 1 38078U 12006B 16049.43020195 .00046462 38965-5 65652-3 0 9994 2 38078 69.4542 332.4829 0416907 272.5144 82.8375 14.95384777211632 DUCHIFAT-1 1 40021U 14033M 16049.41217984 .00003464 00000-0 37342-3 0 9993 2 40021 97.9398 315.6587 0014818 95.4834 264.8073 14.89006943 90434 NANOSATCBR1 1 40024U 14033Q 16049.41416983 .00003014 00000-0 33020-3 0 9996 2 40024 97.9376 315.2037 0014039 95.1899 265.0920 14.88457915 90412 DTUSAT-2 1 40030U 14033W 16049.24064540 .00001948 00000-0 22108-3 0 9991 2 40030 97.9356 314.2377 0013615 91.0258 269.2518 14.87441679 90346 ANTELSAT 1 40034U 14033AA 16049.36051278 .00001245 00000-0 19498-3 0 9990 2 40034 97.9195 300.6729 0060899 50.9205 309.7383 14.73230965 89531 MET-2/21 1 22782U 93055A 16049.13988557 .00000051 00000-0 32653-4 0 9998 2 22782 82.5469 48.4987 0022307 354.8983 73.8195 13.83783458134619 NOAA-15 1 25338U 98030A 16049.56623736 .00000130 00000-0 73840-4 0 9999 2 25338 98.7822 53.4830 0010824 167.7403 192.4042 14.25703990923944 NOAA-18 1 28654U 05018A 16049.54443263 .00000083 00000-0 70440-4 0 9990 2 28654 99.1971 53.3664 0014164 354.1994 5.9011 14.12268645553841 NOAA-19 1 33591U 09005A 16049.55075610 .00000139 00000-0 10039-3 0 9993 2 33591 99.0251 5.4421 0013657 192.2355 167.8487 14.12041416362257 HUBBLE 1 20580U 90037B 16049.52094029 .00002235 00000-0 14073-3 0 9995 2 20580 28.4716 328.8657 0003045 4.4494 355.6653 15.08171039217021 ISS 1 25544U 98067A 16049.62261187 .00010497 00000-0 15796-3 0 9995 2 25544 51.6417 294.2793 0004069 144.7694 215.4089 15.54172495986382 CO-58 1 28895U 05043F 16049.48805902 .00000895 00000-0 18259-3 0 9990 2 28895 97.8242 229.4956 0015906 235.1032 124.8676 14.63102572549609 CAPE1 1 31130U 07012P 16048.85271484 .00000898 00000-0 20315-3 0 9995 2 31130 098.0180 008.8724 0095428 270.8072 088.2193 14.55833342468635 AAUSAT2 1 32788U 08021F 16048.87938902 .00003969 00000-0 38793-3 0 9994 2 32788 097.6206 095.6457 0010951 317.0856 042.9508 14.92868400423146 DO-64 1 32789U 08021G 16049.14921603 .00007404 00000-0 56299-3 0 9995 2 32789 97.6232 110.4570 0011216 316.2022 43.8313 15.02375529423971 CO-66 1 32791U 08021J 16049.08781276 .00001800 00000-0 19426-3 0 9996 2 32791 97.6197 90.9711 0012793 330.3007 29.7484 14.89531296422918 RS-30 1 32953U 08025A 16049.36065808 .00000010 00000-0 -13620-7 0 9994 2 32953 82.5047 181.1550 0018096 261.9321 97.9704 12.43067070351194 JUGNU 1 37839U 11058B 16049.40893690 .00000434 00000-0 89401-4 0 9991 2 37839 19.9610 149.7769 0018806 240.1522 184.0332 14.12523207225074 SRMSAT 1 37841U 11058D 16048.72345150 .00000386 00000-0 67026-4 0 9996 2 37841 019.9709 185.6498 0011822 148.4455 343.1436 14.10525030224560 AO-71 1 37854U 11061E 16049.77852130 .00010436 00000-0 58271-3 0 9999 2 37854 101.7053 32.1769 0176515 65.8537 296.1523 15.01090818234171 HRBE 1 37855U 11061F 16048.91075073 .00009480 00000-0 52572-3 0 9993 2 37855 101.7181 029.0418 0190637 071.9398 290.2477 14.99975744233486 HORYU-2 1 38340U 12025D 16048.89320765 .00001624 00000-0 25010-3 0 9991 2 38340 98.3444 30.6734 0012659 39.8527 320.3608 14.74858407201746 RS-40 1 38735U 12041C 16049.49555055 .00000040 00000-0 21992-3 0 9992 2 38735 82.4726 266.3929 0017236 6.7241 353.4066 12.42571541161505 BEESAT-3 1 39134U 13015E 16049.61276311 .00010325 00000-0 54811-3 0 9990 2 39134 64.8730 347.4814 0012612 236.6034 123.4391 15.15025458155995 BEESAT-2 1 39136U 13015G 16049.83952373 .00007133 00000-0 40217-3 0 9993 2 39136 64.8732 351.4483 0012745 232.4912 127.5555 15.12879926155948 ZACUBE-1 1 39417U 13066B 16048.69068297 .00001395 00000-0 18443-3 0 9997 2 39417 097.6971 106.6185 0061040 057.1005 303.6060 14.80236298120948 TRITON-1 1 39427U 13066M 16049.32782156 .00001179 00000-0 19765-3 0 9994 2 39427 97.6827 90.1944 0116475 100.6758 260.7589 14.67060894119940 GOMX-1 1 39430U 13066Q 16049.33711897 .00000863 00000-0 16653-3 0 9995 2 39430 97.6809 79.3405 0153634 133.4206 227.9934 14.58461138119254 LO-74 1 39440U 13066AA 16048.88199158 .00001167 00000-0 17123-3 0 9996 2 39440 097.6910 100.0364 0082733 073.6320 287.3966 14.75010664119345 SPROUT 1 39770U 14029E 16049.03822501 .00004264 00000-0 50628-3 0 9993 2 39770 97.8683 147.6897 0010843 115.3280 244.9099 14.84949436 94100 EO-80 1 40032U 14033Y 16049.66496269 .00001843 00000-0 20374-3 0 9993 2 40032 97.9354 314.6696 0013443 87.8530 272.4719 14.87373037 90430 VELOX-1 1 40057U 14034E 16049.39434259 .00001742 00000-0 25748-3 0 9990 2 40057 98.1983 136.4076 0011524 165.2933 194.8617 14.76497476 88204 DAURIA DX 1 1 40071U 14037C 16049.40043652 .00000833 00000-0 11571-3 0 9993 2 40071 98.3348 135.6915 0008863 162.4783 197.6737 14.80716782 87228 UKUBE-1 1 40074U 14037F 16049.38024036 .00001785 00000-0 22749-3 0 9994 2 40074 98.3385 137.3168 0004998 160.6614 199.4788 14.82861751 87314 HODOYOSHI-1 1 40299U 14070B 16049.41305876 .00003977 00000-0 18302-3 0 9993 2 40299 97.4363 132.8644 0013857 357.5842 132.7218 15.20824604 71222 CHUBUSAT-1 1 40300U 14070C 16049.42663287 .00004199 00000-0 20118-3 0 9995 2 40300 97.4333 131.4413 0021502 0.9988 61.0340 15.19279747 71148 QSAT-EOS 1 40301U 14070D 16049.40821600 .00008033 00000-0 37121-3 0 9992 2 40301 97.4279 130.6544 0030164 359.5606 131.2232 15.20034905 71101 FIREBIRD FU3 1 40377U 15003B 16049.47936844 .00014902 00000-0 68469-3 0 9997 2 40377 99.0865 133.7617 0148415 164.4597 196.1259 15.11143372 57695 FIREBIRD FU4 1 40378U 15003C 16049.21166106 .00013588 00000-0 62423-3 0 9999 2 40378 99.0863 133.4535 0148671 165.2997 195.2624 15.11145384 57654 GRIFEX 1 40379U 15003D 16049.21742484 .00010085 00000-0 48060-3 0 9999 2 40379 99.0879 132.9564 0151757 167.8297 192.6660 15.09691739 57623 NO-84 1 40654U 15025X 16049.45365833 .00032075 00000-0 69950-3 0 00360 2 40654 054.9935 226.0024 0222269 135.3911 226.5362 15.21992222005789 NO-83 1 40655U 15025X 16049.50085255 .00048059 00000-0 98692-3 0 00380 2 40655 054.9834 222.9255 0209817 136.3696 225.4580 15.25412009005801 DEORBITSAIL 1 40719U 15032E 16048.91256302 .00002480 00000-0 37321-3 0 9992 2 40719 098.0316 301.5193 0015389 263.6413 096.3044 14.75278015032756 NUDT-PHONESAT 1 40900U 15049B 16049.40624813 .00010504 00000-0 55521-3 0 9991 2 40900 97.4475 59.3486 0017231 109.0490 359.8590 15.15536527 22927 XW-2D 1 40907U 15049J 16049.45641771 .00004206 00000-0 24056-3 0 9996 2 40907 97.4516 59.0719 0017040 89.2489 45.0786 15.13080940 22899 XW-2F 1 40910U 15049M 16049.38278075 .00006081 00000-0 34361-3 0 9998 2 40910 97.4548 59.0720 0018317 88.4037 26.0260 15.13320362 22776 XW-2B 1 40911U 15049N 16049.45540128 .00004287 00000-0 24514-3 0 9993 2 40911 97.4570 59.1701 0017003 89.3905 46.7114 15.13079244 22796 DCBB 1 40912U 15049P 16049.40067373 .00006763 00000-0 36224-3 0 9997 2 40912 97.4556 59.5109 0018638 85.8838 19.7438 15.15184026 22817 TW-1C 1 40926U 15051B 16049.47033747 .00019303 00000-0 58938-3 0 9990 2 40926 97.2910 87.8049 0016983 116.4298 355.4272 15.33802527 22395 TW-1A 1 40928U 15051D 16049.47508998 .00008794 00000-0 28605-3 0 9997 2 40928 97.2858 87.5284 0015914 129.9748 335.7692 15.31992913 22381 IO-86 1 40931U 15052B 16049.10925976 .00001046 00000-0 57115-4 0 9993 2 40931 5.9992 91.1401 0012674 222.7589 137.2245 14.76426365 21151 AAUSat-5 1 40948U 98067GZ 16049.62576639 .00363937 00000-0 14715-2 0 9990 2 40948 51.6399 282.2275 0007087 187.8526 172.2879 15.85523121 21313 GomX-3 1 40949U 98067HA 16049.10775786 .00047486 00000-0 44130-3 0 9991 2 40949 51.6392 290.0856 0007206 139.8147 220.3383 15.66901567 21170 LQSat 1 40958U 15057A 16049.40304687 .00000418 00000-0 73167-4 0 9997 2 40958 98.0249 125.8199 0018339 173.4208 186.7245 14.72814239 19750 AO-85 1 40967U 15058D 16049.51529480 .00001520 00000-0 17407-3 0 00439 2 40967 064.7786 248.6871 0214565 242.0308 115.8936 14.74757678005626 ATHENOXAT-1 1 41168U 15077C 16049.37902377 .00007787 00000-0 43568-3 0 9996 2 41168 14.9887 105.3574 0012873 145.8328 307.5472 15.09093414 9627 AGGIESAT4 1 41313U 98067HP 16049.23314268 .00026844 00000-0 39383-3 0 9994 2 41313 51.6450 296.1697 0006831 128.0036 232.1574 15.55303551 3036 KWANGMYONGSONG4 1 41332U 16009A 16049.40790787 .00007328 00000-0 27186-3 0 9998 2 41332 97.5274 97.9032 0025933 297.0593 119.0380 15.27589420 1732 OBJECT B 1 41338U 16012B 16049.75016273 .00000087 00000-0 00000 0 0 9994 2 41338 31.0024 307.8693 0014373 307.3436 52.5889 14.99183702 215 OBJECT C 1 41339U 16012C 16049.74994298 .00000899 00000-0 64728-4 0 9999 2 41339 31.0096 307.8640 0013998 309.9275 50.0280 14.99432670 183 OBJECT D 1 41340U 16012D 16049.74968630 .00001446 00000-0 10750-3 0 9996 2 41340 31.0072 307.8565 0014539 312.5371 47.3969 14.99709532 204 /EX
